Weather in Tyulkino

Russia / Perm Krai     59°50′22″N   56°31′27″E
temp.,
°C
wind,
m/s
gust,
m/s
humid.,
%
clouds,
%
prec.,
mm/h
press.,
hPa
HPBL,
m
28 february, sun
sun2823:00−21e389013 0.0 1014184
02:00−23e369231 0.0 1013111
05:00−24e369125 0.0 1014120
08:00−24ene369116 0.0 1014127
11:00−19e378415 0.0 1014390
14:00−14e368020 0.0 1014629
17:00−12ene258253 0.0 1014707
20:00−17ene239146 0.0 101530
1 march, mon
mon123:00−20e229241 0.0 101720
02:00−22ne119181 0.0 101820
05:00−22nne129085 0.0 101920
08:00−23nne11929 0.0 101920
11:00−17sse11854 0.0 1019169
14:00−12sw12800 0.0 1017392
17:00−12s248832 0.0 1016472
20:00−17s389778 0.0 1014156
2 march, tue
tue223:00−18s4109673 0.0 1012263
02:00−17s5129496 0.0 1009368
05:00−17s5129498 0.0 1007417
08:00−16s51295100 0.3 1004465
11:00−14s61293100 0.9 1002540
14:00−12s51192100 0.7 1000617
17:00−11s51092100 1.2 1000637
20:00−12s4994100 0.4 999573
3 march, wed
wed323:00−13s3894100 1.0 999424
02:00−13s3895100 0.2 998354
05:00−13sse3796100 0.6 998291
08:00−13sse2696100 0.4 998228
11:00−11s2493100 0.8 998312
14:00−8s1289100 0.3 998378
17:00−7nnw1292100 0.7 998293
20:00−10nw2696100 0.3 998201
4 march, thu
thu423:00−11wnw2597100 0.4 1000141
02:00−13wnw389788 0.1 999170
05:00−15wnw259886 0.1 100092
08:00−14w269694 0.2 1000178
11:00−10w359397 0.3 1000346
14:00−7wsw2487100 0.1 1000632
17:00−7ssw3687100 0.1 998779
20:00−9s51193100 0.1 996589